Location: Unspecified
(0.0000°N, 0.0000°E)
Time: 19:36:04
(UTC+00:00)

N. Korean satellite - Visible Passes

Search period start: 25 February 2021 00:00
Search period end: 07 March 2021 00:00
Orbit: 451 x 503 km, 97.2° (Epoch: 25 February)

Date Brightness Start Highest point End Pass type
(mag) Time Alt. Az. Time Alt. Az. Time Alt. Az.
25 Feb 6.5 05:11:10 10° N 05:14:41 63° W 05:18:17 10° SSW visible
26 Feb 7.9 04:44:39 10° NNE 04:48:02 41° E 04:51:29 10° S visible
27 Feb 9.7 04:19:15 10° ENE 04:21:25 15° ESE 04:23:37 10° SE visible
28 Feb 7.1 05:24:28 10° NNW 05:27:47 36° W 05:31:10 10° SSW visible
01 Mar 6.8 04:57:32 10° NNE 05:01:07 73° E 05:04:46 10° S visible
02 Mar 8.9 04:31:28 10° NE 04:34:28 25° ESE 04:37:30 10° SSE visible
03 Mar 7.8 05:37:58 10° NNW 05:40:49 22° W 05:43:43 10° SW visible
04 Mar 6.5 05:10:34 10° N 05:14:08 64° W 05:17:46 10° SSW visible
05 Mar 7.9 04:44:01 10° NNE 04:47:27 41° ESE 04:50:56 10° S visible
06 Mar 9.7 04:18:34 10° ENE 04:20:47 15° ESE 04:23:00 10° SE visible
